Lexington Weather

Lexington, Massachusetts, USA

68°F
9/23/2021 5:31am 
  • Lexington Conditions: Mostly cloudy
  • Temperature: 67.6°F / 19.8°CWarmer 0.7°F than last hour.
  • Dew Point: 66.7°FIncreased 1.0°Fsince last hour.
  • Relative Humidity: 97%Increased 1.0% since last hour.
  • Wind: Wind from WSW WSW 1 mph, 10-min avg: Calm, gust: 2 mph
  • Barometer: 30.03 in Steady
  • Visibility: 10 miles
  • Rain Today: 0.00 in
  •   

Regional Weather Roundup
for Boston / Norton, MA

        
000
ASUS41 KBOX 210504
RWRBOX

REGIONAL WEATHER ROUNDUP
NATIONAL WEATHER SERVICE BOSTON/NORTON MA
100 AM EDT TUE SEP 21 2021

NOTE:  "FAIR" INDICATES FEW OR NO CLOUDS BELOW 12,000 FEET WITH NO 
SIGNIFICANT WEATHER AND/OR OBSTRUCTIONS TO VISIBILITY.

MAZALL-210600-
EASTERN MASSACHUSETTS
  
CITY           SKY/WX    TMP DP  RH WIND       PRES   REMARKS
BOSTON         PTCLDY    61  54  77 CALM      30.42S                  
BEVERLY        CLEAR     54  52  93 CALM      30.41S                  
LAWRENCE       CLEAR     55  54  96 CALM      30.44S                  
BEDFORD        CLEAR     51  51 100 CALM      30.41S                  
BLUE HILL      NOT AVBL                                               
NORWOOD        CLEAR     49  46  90 CALM      30.42S                  
MARSHFIELD     CLEAR     61  52  72 SE5       30.42S                  
PLYMOUTH       CLEAR     50  49  96 CALM      30.42S                  
TAUNTON        PTCLDY    47  45  93 CALM      30.42S                  
NEW BEDFORD    CLEAR     49  48  97 CALM      30.41S                  
$$

MAZALL-210600-
CAPE COD AND THE ISLANDS
  
CITY           SKY/WX    TMP DP  RH WIND       PRES   REMARKS
FALMOUTH       CLEAR     52  50  93 NE6       30.42S                  
HYANNIS        CLEAR     51  50  96 CALM      30.41S                  
CHATHAM        PTCLDY    61  56  83 E5        30.43S                  
PROVINCETOWN   CLEAR     53  51  93 SE5       30.43F                  
NANTUCKET      CLEAR     60  55  83 E7        30.41F                  
MARTHAS VNYRD  CLEAR     47  47 100 E3        30.41F                  
$$
 
MAZALL-210600-
CENTRAL AND WESTERN MASSACHUSETTS
  
CITY           SKY/WX    TMP DP  RH WIND       PRES   REMARKS
WORCESTER      CLEAR     56  52  86 S6        30.42F                  
FITCHBURG      CLEAR     52  50  93 NW3       30.43S                  
ORANGE         CLEAR     53  51  93 CALM      30.42F                  
SPRINGFIELD    CLEAR     53  53 100 CALM      30.39F                  
WESTFIELD      CLEAR     55  55 100 CALM      30.41R                  
NORTH ADAMS    CLEAR     61  54  77 E7        30.38R                  
PITTSFIELD     CLEAR     58  52  80 SE9       30.38S                  
$$
 
RIZALL-210600-
RHODE ISLAND
  
CITY           SKY/WX    TMP DP  RH WIND       PRES   REMARKS
PROVIDENCE     CLEAR     58  55  90 CALM      30.42S                  
NEWPORT        CLEAR     57  51  80 E3        30.41S                  
SMITHFIELD     CLEAR     54  53  97 SE3       30.42S                  
WESTERLY       CLEAR     53  53 100 N3        30.41R                  
$$
 
CTZALL-210600-
CONNECTICUT
  
CITY           SKY/WX    TMP DP  RH WIND       PRES   REMARKS
BRADLEY INTL   PTCLDY    54  54 100 CALM      30.41R                  
HARTFORD       CLEAR     58  54  86 CALM      30.40S                  
BRIDGEPORT     PTCLDY    66  54  65 SE12      30.39S                  
DANBURY        CLEAR     57  54  89 CALM      30.40S                  
GROTON         CLEAR     61  52  72 NE3       30.40S                  
NEW HAVEN      PTCLDY    67  56  67 SE9       30.39S                  
CHESTER        FAIR      55  55 100 CALM      30.40S                  
MERIDEN        CLEAR     56  53  90 CALM      30.40S                  
WILLIMANTIC    CLEAR     53  52  96 CALM      30.42F                  
OXFORD         CLEAR     57  54  89 SE3       30.41S                  
$$

MEZ002-015-021-024-NHZ003-005-008-011-012-014-VTZ005-008-210600-
NORTHERN NEW ENGLAND
  
CITY           SKY/WX    TMP DP  RH WIND       PRES   REMARKS
PORTLAND ME    CLEAR     52  51  97 CALM      30.43S                  
BANGOR ME      CLEAR     52  51  97 S3        30.43S                  
CONCORD NH     PTCLDY    53  50  89 CALM      30.43R                  
MANCHESTER NH  PTCLDY    56  51  84 CALM      30.41S                  
NASHUA NH      CLEAR     53  53 100 CALM      30.43S                  
PORTSMOUTH NH  PTCLDY    55  53  93 CALM      30.44R                  
JAFFREY NH     CLEAR     52  52 100 CALM      30.43S                  
KEENE NH       MOCLDY    54  53  97 CALM      30.42S                  
BURLINGTON VT  CLEAR     64  56  75 S8        30.30S                  
MT. WASHINGTON MOCLDY    52   9  17 SW17G23     N/A                   
$$

NYZ052-076-210600-
EASTERN NEW YORK
  
CITY           SKY/WX    TMP DP  RH WIND       PRES   REMARKS
ALBANY         PTCLDY    59  55  87 SE10      30.35S                  
NEW YORK CITY  PTCLDY    67  55  65 SE5       30.37S                  
$$
 
ANZALL-210600-
MARINE OBSERVATIONS
  
STATION/POSITION TIME  TEMP    WIND        PRES    VSBY  WAVE
                       AIR SEA DIR/SP/G                  HT/PER
                 (UTC) (F)     (DEG/KT/KT) (MB)    (MI)  (FT/S)
BOSTON BUOY      0440      65  130/ 12/ 16 1030.2F
BUZZARDS BAY     0400          100/ 12/ 13 1030.8R
NANTUCKET SOUND  0440   65 72  110/ 12/ 16 1029.7F
MASS BAY-STELLWA 0404   64     150/ 12/ 14 1029.7S  1 7/8  3/ 8
ISLE OF SHOALS   0400   63     160/ 13/ 15 1029.7R
S OF BLOCK IS    0426      71                N/A           3/10
$$

......................KEY.........................
  SKY/WX - SKY CONDITION/PRESENT WEATHER
  TMP    - TEMPERATURE IN FAHRENHEIT
  DWPT   - DEWPOINT IN FAHRENHEIT
  RH     - RELATIVE HUMIDITY IN PERCENT
  WIND   - DIRECTION AND SPEED IN MPH
  PRES   - MEAN SEA LEVEL PRESSURE IN INCHES OF HG
  WCI    - WIND CHILL INDEX
  VSB    - VISIBILITY IN MILES
  HX     - HEAT INDEX
  TC     - TEMPERATURE IN CELSIUS
  VRB    - VARIABLE WIND DIRECTION
  N/A    - NOT AVAILABLE
  
      

Other recent Regional Weather Roundups

Thu Sep 23, 5:04am

Thu Sep 23, 4:04am

Thu Sep 23, 3:04am

Thu Sep 23, 2:04am

Thu Sep 23, 1:04am

Thu Sep 23, 12:04am

Wed Sep 22, 11:04pm

Wed Sep 22, 10:04pm

Wed Sep 22, 9:04pm

Wed Sep 22, 8:04pm

Wed Sep 22, 7:04pm

Wed Sep 22, 6:04pm

Wed Sep 22, 5:04pm

Wed Sep 22, 4:04pm

Wed Sep 22, 3:04pm

Wed Sep 22, 2:04pm

Wed Sep 22, 1:04pm

Wed Sep 22, 12:05pm

Wed Sep 22, 11:04am

Wed Sep 22, 10:04am

Wed Sep 22, 9:04am

Wed Sep 22, 8:04am

Wed Sep 22, 7:04am

Wed Sep 22, 6:04am

Wed Sep 22, 5:04am

Wed Sep 22, 4:04am

Wed Sep 22, 3:04am

Wed Sep 22, 2:04am

Wed Sep 22, 1:04am

Wed Sep 22, 12:04am

Tue Sep 21, 11:04pm

Tue Sep 21, 10:04pm

Tue Sep 21, 9:04pm

Tue Sep 21, 8:04pm

Tue Sep 21, 7:04pm

Tue Sep 21, 6:04pm

Tue Sep 21, 5:04pm

Tue Sep 21, 4:04pm

Tue Sep 21, 3:04pm

Tue Sep 21, 2:04pm

Tue Sep 21, 1:04pm

Tue Sep 21, 12:04pm

Tue Sep 21, 11:04am

Tue Sep 21, 10:04am

Tue Sep 21, 9:04am

Tue Sep 21, 8:04am

Tue Sep 21, 7:04am

Tue Sep 21, 6:04am

Tue Sep 21, 5:04am

Tue Sep 21, 4:04am

Tue Sep 21, 3:04am

Tue Sep 21, 2:04am

Tue Sep 21, 12:04am

Mon Sep 20, 11:04pm

Mon Sep 20, 10:04pm

Mon Sep 20, 9:04pm

Mon Sep 20, 8:04pm

Mon Sep 20, 7:04pm

Mon Sep 20, 6:04pm

Mon Sep 20, 5:04pm

Mon Sep 20, 4:04pm

Mon Sep 20, 3:04pm

Mon Sep 20, 2:04pm

Mon Sep 20, 1:04pm

Mon Sep 20, 12:04pm

Mon Sep 20, 11:04am

Mon Sep 20, 10:04am

Mon Sep 20, 9:04am

Mon Sep 20, 7:04am

Mon Sep 20, 6:04am

Mon Sep 20, 5:04am

Mon Sep 20, 4:04am

Mon Sep 20, 3:04am

Mon Sep 20, 2:04am

Mon Sep 20, 1:04am

Mon Sep 20, 12:04am

Sun Sep 19, 11:04pm

Sun Sep 19, 10:04pm

Sun Sep 19, 9:04pm

Sun Sep 19, 8:04pm

Sun Sep 19, 7:04pm

Sun Sep 19, 6:04pm

Sun Sep 19, 5:04pm

Sun Sep 19, 4:04pm

Sun Sep 19, 3:04pm

Sun Sep 19, 2:05pm

Sun Sep 19, 1:04pm

Sun Sep 19, 12:04pm

Sun Sep 19, 11:04am

Sun Sep 19, 10:05am

Sun Sep 19, 9:04am

Sun Sep 19, 8:04am

Sun Sep 19, 7:04am

Sun Sep 19, 6:04am

Sun Sep 19, 5:04am

Sun Sep 19, 4:04am

Sun Sep 19, 3:04am

Sun Sep 19, 2:04am

Sun Sep 19, 1:04am

Sun Sep 19, 12:04am

Sat Sep 18, 11:05pm

Sat Sep 18, 10:04pm

Sat Sep 18, 9:04pm

Sat Sep 18, 8:04pm

Sat Sep 18, 7:04pm

Sat Sep 18, 6:04pm

Sat Sep 18, 5:04pm

Sat Sep 18, 4:04pm

Sat Sep 18, 3:04pm

Sat Sep 18, 2:04pm

Sat Sep 18, 1:04pm

Sat Sep 18, 12:04pm

Sat Sep 18, 11:04am

Sat Sep 18, 10:04am

Sat Sep 18, 9:04am

Sat Sep 18, 8:04am

Sat Sep 18, 7:04am

Sat Sep 18, 6:04am

Sat Sep 18, 5:04am

Sat Sep 18, 4:04am

Sat Sep 18, 3:04am

Sat Sep 18, 2:04am

Sat Sep 18, 1:04am

Sat Sep 18, 12:04am

Fri Sep 17, 11:04pm

Fri Sep 17, 10:04pm

Fri Sep 17, 9:04pm

Fri Sep 17, 8:04pm

Fri Sep 17, 7:04pm

Fri Sep 17, 6:04pm

Fri Sep 17, 5:04pm

Fri Sep 17, 4:04pm

Fri Sep 17, 3:04pm

Fri Sep 17, 2:04pm

Fri Sep 17, 1:04pm

Fri Sep 17, 12:05pm

Fri Sep 17, 11:04am

Fri Sep 17, 10:04am

Fri Sep 17, 9:04am

Fri Sep 17, 8:04am

Fri Sep 17, 7:04am

Fri Sep 17, 6:04am

Fri Sep 17, 5:04am

Fri Sep 17, 4:04am

Fri Sep 17, 3:04am

Fri Sep 17, 2:04am

Fri Sep 17, 1:04am

Fri Sep 17, 12:04am

Thu Sep 16, 11:04pm

Thu Sep 16, 10:04pm

Thu Sep 16, 9:04pm

Thu Sep 16, 8:04pm

Thu Sep 16, 7:04pm

Thu Sep 16, 6:04pm

Thu Sep 16, 5:04pm

Thu Sep 16, 4:04pm

Thu Sep 16, 3:04pm

Thu Sep 16, 2:04pm

Thu Sep 16, 1:05pm

Thu Sep 16, 12:04pm

Thu Sep 16, 11:05am

Thu Sep 16, 10:05am

Thu Sep 16, 9:04am

Thu Sep 16, 8:04am

Thu Sep 16, 7:04am

Thu Sep 16, 6:04am

Meta data:

ID: e6536fc2-a89e-4525-b13d-a76e09da1f98
Link: https://api.weather.gov/products/e6536fc2-a89e-4525-b13d-a76e09da1f98